15 daagse weersverwachting Kristiansund (NO)

  • Overzicht
  • Per uur
  • 15 dagen
  • Extra
  • Vergelijk
  • Kaarten
  • Dagkaart
  • Meer »
  • Info
  • Statistieken
  • Directe link
    Temp 6h Neerslag Wind  
 06:20     20:42    Daglengte: 14:22 Vandaag
14:00
 
11
20:00
5.2 mm
9
 06:17     20:45    Daglengte: 14:28 Morgen
02:00
 
8
08:00
11.5 mm
6
14:00
20.7 mm
6
20:00
22.7 mm
5
 06:13     20:48    Daglengte: 14:35 Zaterdag 11 Apr
02:00
8.8 mm
2
08:00
 
3
14:00
 
2
20:00
23.4 mm
2
 06:10     20:51    Daglengte: 14:41 Zondag 12 Apr
02:00
54.7 mm
3
08:00
70.7 mm
7
Locatie info
Region: MÝre og Romsdal
Latitude: 63.1205°N
Longitude: 7.7141°E
1 masl
Postcode: 6509
Temp/Neerslag /Baro Onweer/DauwpuntSneeuw
    Temp Baro 1h Neerslag Dauwpunt Wind UV BewolkingSneeuw  
 06:20     20:42    Daglengte: 14:22 Vandaag
14:00
Voelt als: -0.7°
1021.6 hPa
48%
1.6°
11
Windvlaag: 12.8 km/h
73%2 cm
15:00
Voelt als: -0.4°
1022.2 hPa 0.9 mm
82%
1.6°
10
Windvlaag: 11.7 km/h
71%2 cm
16:00
Voelt als: -0.4°
1022.6 hPa 1.3 mm
82%
1.0°
10
Windvlaag: 12.3 km/h
61%2 cm
17:00
Voelt als: -0.5°
1023.0 hPa 1.5 mm
82%
0.6°
10
Windvlaag: 11.2 km/h
61%2 cm
18:00
Voelt als: -0.6°
1023.4 hPa 1.4 mm
82%
0.3°
10
Windvlaag: 10.8 km/h
69%2 cm
19:00
Voelt als: -0.9°
1023.7 hPa
82%
0.2°
10
Windvlaag: 11.3 km/h
71%2 cm
20:00
Voelt als: -1.2°
1024.0 hPa
82%
0.2°
9
Windvlaag: 10.6 km/h
85%2 cm
21:00
Voelt als: -2.0°
1024.6 hPa
82%
2.1°
9
Windvlaag: 10.5 km/h
87%2 cm
22:00
Voelt als: -1.9°
1025.0 hPa
82%
-0.2°
9
Windvlaag: 9.1 km/h
73%2 cm
23:00
Voelt als: -1.9°
1025.3 hPa
82%
-0.3°
9
Windvlaag: 9.4 km/h
72%2 cm
 06:17     20:45    Daglengte: 14:28 Morgen
00:00
Voelt als: -1.9°
1025.5 hPa
82%
-0.9°
8
Windvlaag: 9.1 km/h
87%2 cm
01:00
Voelt als: -2.4°
1025.7 hPa
82%
-1.5°
8
Windvlaag: 9.8 km/h
89%3 cm
02:00
Voelt als: -2.2°
1025.8 hPa
82%
-1.6°
8
Windvlaag: 9.1 km/h
77%3 cm
03:00
Voelt als: -2.4°
1025.8 hPa
82%
-1.8°
7
Windvlaag: 9.1 km/h
87%3 cm
04:00
Voelt als: -2.5°
1025.7 hPa 2.6 mm
82%
-2.0°
7
Windvlaag: 7.8 km/h
86%3 cm
05:00
Voelt als: -2.3°
1025.6 hPa 2.9 mm
82%
-2.1°
6
Windvlaag: 8 km/h
80%4 cm
06:00
Voelt als: -2.1°
1025.6 hPa 2.9 mm
82%
-2.0°
6
Windvlaag: 7 km/h
66%4 cm
07:00
Voelt als: -2.0°
1025.3 hPa
82%
-1.9°
6
Windvlaag: 6.7 km/h
84%4 cm
08:00
Voelt als: -2.0°
1025.3 hPa 3.2 mm
82%
-1.8°
6
Windvlaag: 6.2 km/h
85%4 cm
09:00
Voelt als: -1.9°
1025.2 hPa 3.3 mm
82%
-1.4°
6
Windvlaag: 6 km/h
85%4 cm
10:00
Voelt als: -1.7°
1025.1 hPa 3.1 mm
82%
-1.1°
7
Windvlaag: 6.7 km/h
80%4 cm
11:00
Voelt als: -1.5°
1025.2 hPa 3.2 mm
82%
-1.0°
7
Windvlaag: 7.3 km/h
84%4 cm
12:00
Voelt als: -1.4°
1025.1 hPa 3.6 mm
82%
-0.8°
7
Windvlaag: 7.9 km/h
85%4 cm
13:00
Voelt als: -1.4°
1025.2 hPa 3.7 mm
82%
-0.3°
7
Windvlaag: 8.1 km/h
88%4 cm
14:00
Voelt als: -1.1°
1024.8 hPa 3.8 mm
82%
0.4°
6
Windvlaag: 8.3 km/h
88%4 cm
15:00
Voelt als: -0.4°
1024.5 hPa 4.1 mm
82%
0.4°
6
Windvlaag: 8.5 km/h
91%4 cm
16:00
Voelt als: -1.0°
1024.0 hPa 4.2 mm
82%
1.1°
6
Windvlaag: 8.7 km/h
90%4 cm
17:00
Voelt als: -1.0°
1024.1 hPa 3.2 mm
73%
1.7°
5
Windvlaag: 8.1 km/h
90%4 cm
18:00
Voelt als: -0.8°
1024.1 hPa 3.7 mm
74%
1.6°
5
Windvlaag: 5.7 km/h
91%4 cm
19:00
Voelt als: -0.8°
1024.1 hPa 3.7 mm
82%
1.4°
6
Windvlaag: 7.5 km/h
89%4 cm
20:00
Voelt als: -1.0°
1024.2 hPa 3.8 mm
82%
1.5°
5
Windvlaag: 7.8 km/h
90%4 cm
21:00
Voelt als: -0.6°
1024.1 hPa 4.2 mm
82%
1.0°
5
Windvlaag: 7 km/h
90%5 cm
22:00
Voelt als: -0.5°
1024.1 hPa 4.6 mm
82%
0.9°
5
Windvlaag: 6.3 km/h
87%6 cm
23:00
Voelt als: -0.5°
1024.1 hPa
80%
0.5°
4
Windvlaag: 6.2 km/h
84%7 cm
 06:13     20:48    Daglengte: 14:35 Zaterdag 11 Apr
00:00
Voelt als: 0.0°
1024.2 hPa
82%
0.5°
4
Windvlaag: 5.9 km/h
85%8 cm
01:00
Voelt als: 0.5°
1024.3 hPa
82%
1.9°
3
Windvlaag: 5.6 km/h
85%9 cm
02:00
Voelt als: 1.1°
1024.4 hPa
82%
1.7°
2
Windvlaag: 3.2 km/h
76%9 cm
03:00
Voelt als: 0.9°
1024.2 hPa
82%
1.1°
2
Windvlaag: 2.6 km/h
62%9 cm
04:00
Voelt als: 0.4°
1024.0 hPa
82%
-0.2°
2
Windvlaag: 2.7 km/h
65%9 cm
05:00
Voelt als: 0.2°
1023.8 hPa
82%
-0.5°
2
Windvlaag: 2.6 km/h
67%9 cm
06:00
Voelt als: -0.1°
1023.5 hPa
82%
-0.6°
3
Windvlaag: 2.6 km/h
87%9 cm
07:00
Voelt als: -0.1°
1023.1 hPa
72%
-0.9°
3
Windvlaag: 2.9 km/h
84%9 cm
08:00
Voelt als: -0.1°
1022.6 hPa
66%
-0.8°
3
Windvlaag: 3.5 km/h
84%9 cm
09:00
Voelt als: 0.3°
1022.2 hPa
19%
-1.1°
3
Windvlaag: 4.1 km/h
81%9 cm
10:00
Voelt als: 1.3°
1021.6 hPa
14%
-0.8°
3
Windvlaag: 4.4 km/h
79%9 cm
11:00
Voelt als: 2.0°
1019.5 hPa
21%
-0.8°
3
Windvlaag: 4.6 km/h
93%8 cm
12:00
Voelt als: 2.8°
1018.6 hPa
21%
-0.7°
3
Windvlaag: 4 km/h
93%8 cm
13:00
Voelt als: 3.9°
1017.8 hPa
21%
-0.7°
2
Windvlaag: 3.4 km/h
97%7 cm
14:00
Voelt als: 5.0°
1017.0 hPa
21%
-0.5°
2
Windvlaag: 2.3 km/h
99%7 cm
15:00
Voelt als: 5.1°
1016.2 hPa
21%
0.7°
1
Windvlaag: 1.7 km/h
100%6 cm
16:00
Voelt als: 5.5°
1015.1 hPa
21%
2.9°
1
Windvlaag: 1.4 km/h
100%6 cm
17:00
Voelt als: 4.1°
1014.0 hPa
25%
3.5°
2
Windvlaag: 2.2 km/h
100%6 cm
18:00
Voelt als: 3.1°
1012.8 hPa 8.4 mm
48%
3.7°
2
Windvlaag: 3.6 km/h
98%5 cm
19:00
Voelt als: 2.9°
1011.5 hPa 8.7 mm
100%
4.0°
2
Windvlaag: 3.8 km/h
100%5 cm
20:00
Voelt als: 2.5°
1010.2 hPa 6.4 mm
100%
3.9°
2
Windvlaag: 3.7 km/h
100%5 cm
21:00
Voelt als: 2.0°
1009.3 hPa 8.5 mm
100%
3.8°
3
Windvlaag: 1.3 km/h
98%5 cm
22:00
Voelt als: 1.8°
1008.2 hPa 8.5 mm
100%
3.5°
3
Windvlaag: 2.8 km/h
100%5 cm
23:00
Voelt als: 2.1°
1007.3 hPa 8.6 mm
100%
3.4°
3
Windvlaag: 3.3 km/h
100%5 cm
 06:10     20:51    Daglengte: 14:41 Zondag 12 Apr
00:00
Voelt als: 2.4°
1006.3 hPa 9.2 mm
100%
3.5°
3
Windvlaag: 3.6 km/h
100%5 cm
01:00
Voelt als: 2.5°
1005.4 hPa 9.8 mm
100%
3.5°
3
Windvlaag: 4 km/h
100%5 cm
02:00
Voelt als: 2.8°
1004.6 hPa 10.2 mm
100%
3.6°
3
Windvlaag: 2 km/h
100%5 cm
03:00
Voelt als: 2.5°
1003.9 hPa 10.7 mm
100%
3.8°
4
Windvlaag: 8.5 km/h
100%4 cm
04:00
Voelt als: 2.0°
1003.2 hPa 10.8 mm
100%
4.2°
6
Windvlaag: 10.6 km/h
100%4 cm
05:00
Voelt als: 2.0°
1002.6 hPa 10.6 mm
100%
4.2°
6
Windvlaag: 10.4 km/h
100%4 cm
06:00
Voelt als: 1.9°
1002.7 hPa 17.7 mm
100%
4.3°
6
Windvlaag: 10.6 km/h
100%4 cm
07:00
Voelt als: 1.9°
1002.7 hPa 10.4 mm
100%
4.5°
7
Windvlaag: 9.4 km/h
100%4 cm
08:00
Voelt als: 1.6°
1002.7 hPa 10.5 mm
100%
4.4°
7
Windvlaag: 4.8 km/h
100%4 cm
09:00
Voelt als: 0.5°
1002.6 hPa 17.5 mm
100%
3.3°
7
Windvlaag: 10.1 km/h
100%4 cm
10:00
Voelt als: 0.4°
1003.2 hPa 17.8 mm
100%
3.1°
7
Windvlaag: 9.9 km/h
100%4 cm
11:00
Voelt als: 0.6°
1003.7 hPa 17.7 mm
99%
3.1°
7
Windvlaag: 8.1 km/h
100%3 cm
12:00
Voelt als: 0.6°
1004.4 hPa
98%
3.1°
7
Windvlaag: 9.6 km/h
98%3 cm
13:00
Voelt als: 0.5°
1005.0 hPa
84%
2.8°
7
Windvlaag: 8.8 km/h
82%3 cm
Temp/Neerslag /Baro Onweer/DauwpuntSneeuw
    Temp Baro Neerslag Dauwpunt Wind BewolkingSneeuw  
 06:20     20:42    Daglengte: 14:22 Vandaag
14:00
Voelt als: -0.7°
1021.6 hPa   1.6°
11
73%2 cm
17:00
Voelt als: -0.5°
1023.0 hPa 3.7 mm 0.6°
10
61%2 cm
20:00
Voelt als: -1.2°
1024.0 hPa 1.4 mm 0.2°
9
85%2 cm
23:00
Voelt als: -1.9°
1025.3 hPa   -0.3°
9
72%2 cm
 06:17     20:45    Daglengte: 14:28 Morgen
02:00
Voelt als: -2.2°
1025.8 hPa   -1.6°
8
77%3 cm
05:00
Voelt als: -2.3°
1025.6 hPa 5.5 mm -2.1°
6
80%4 cm
08:00
Voelt als: -2.0°
1025.3 hPa 6.0 mm -1.8°
6
85%4 cm
11:00
Voelt als: -1.5°
1025.2 hPa 9.5 mm -1.0°
7
84%4 cm
14:00
Voelt als: -1.1°
1024.8 hPa 11.1 mm 0.4°
6
88%4 cm
17:00
Voelt als: -1.0°
1024.1 hPa 11.5 mm 1.7°
5
90%4 cm
20:00
Voelt als: -1.0°
1024.2 hPa 11.2 mm 1.5°
5
90%4 cm
23:00
Voelt als: -0.5°
1024.1 hPa 8.8 mm 0.5°
4
84%7 cm
 06:13     20:48    Daglengte: 14:35 Zaterdag 11 Apr
02:00
Voelt als: 1.1°
1024.4 hPa   1.7°
2
76%9 cm
05:00
Voelt als: 0.2°
1023.8 hPa   -0.5°
2
67%9 cm
08:00
Voelt als: -0.1°
1022.6 hPa   -0.8°
3
84%9 cm
11:00
Voelt als: 2.0°
1019.5 hPa   -0.8°
3
93%8 cm
14:00
Voelt als: 5.0°
1017.0 hPa   -0.5°
2
99%7 cm
17:00
Voelt als: 4.1°
1014.0 hPa   3.5°
2
100%6 cm
20:00
Voelt als: 2.5°
1010.2 hPa 23.4 mm 3.9°
2
100%5 cm
23:00
Voelt als: 2.1°
1007.3 hPa 25.5 mm 3.4°
3
100%5 cm
 06:10     20:51    Daglengte: 14:41 Zondag 12 Apr
02:00
Voelt als: 2.8°
1004.6 hPa 29.2 mm 3.6°
3
100%5 cm
05:00
Voelt als: 2.0°
1002.6 hPa 32.1 mm 4.2°
6
100%4 cm
08:00
Voelt als: 1.6°
1002.7 hPa 38.6 mm 4.4°
7
100%4 cm
11:00
Voelt als: 0.6°
1003.7 hPa 53.0 mm 3.1°
7
100%3 cm
14:00
Voelt als: 0.6°
1005.6 hPa 54.3 mm 2.6°
8
77%3 cm
17:00
Voelt als: -0.7°
1005.7 hPa 34.8 mm 1.5°
9
76%
20:00
Voelt als: -1.6°
1007.8 hPa 35.3 mm 0.7°
9
69%
23:00
Voelt als: -2.4°
1011.2 hPa 35.8 mm -0.2°
11
61%
 06:06     20:54    Daglengte: 14:48 Maandag 13 Apr
02:00
Voelt als: -3.0°
1014.6 hPa 36.0 mm -0.9°
12
52%
05:00
Voelt als: -3.0°
1017.7 hPa 36.6 mm -1.2°
11
49%
08:00
Voelt als: -2.9°
1020.8 hPa 37.3 mm -1.4°
9
45%
11:00
Voelt als: -1.9°
1022.6 hPa 37.5 mm -2.6°
8
68%
14:00
Voelt als: -0.8°
1024.5 hPa 37.5 mm -3.6°
7
91%
17:00
Voelt als: -0.8°
1023.9 hPa 37.5 mm -3.6°
6
91%
20:00
Voelt als: -0.8°
1023.2 hPa 37.5 mm -3.6°
6
92%
23:00
Voelt als: -1.7°
1022.0 hPa 37.5 mm -1.8°
8
92%
 06:03     20:57    Daglengte: 14:54 Dinsdag 14 Apr
02:00
Voelt als: -2.3°
1020.7 hPa 37.5 mm -0.2°
11
92%
05:00
Voelt als: -2.1°
1017.9 hPa 37.6 mm 0.5°
11
92%
08:00
Voelt als: -1.8°
1015.1 hPa 37.8 mm 1.2°
11
92%
11:00
Voelt als: -0.3°
1014.3 hPa 38.1 mm 2.5°
12
92%
14:00
Voelt als: 1.2°
1013.4 hPa 38.4 mm 3.7°
12
92%
17:00
Voelt als: 1.7°
1012.6 hPa 38.9 mm 4.6°
13
92%
20:00
Voelt als: 2.2°
1011.9 hPa 39.0 mm 5.4°
13
92%
23:00
Voelt als: 2.1°
1011.8 hPa 39.0 mm 5.5°
14
92%
 06:00     21:00    Daglengte: 15:00 Woensdag 15 Apr
02:00
Voelt als: 2.1°
1011.7 hPa 39.0 mm 5.6°
14
92%
05:00
Voelt als: 1.9°
1013.3 hPa 39.0 mm 4.4°
12
90%
08:00
Voelt als: 1.8°
1014.9 hPa 39.0 mm 3.2°
9
89%
11:00
Voelt als: 3.1°
1015.2 hPa 39.1 mm 4.0°
9
89%
14:00
Voelt als: 4.5°
1015.5 hPa 39.1 mm 4.6°
9
89%
17:00
Voelt als: 4.2°
1014.7 hPa 39.1 mm 4.8°
8
88%
20:00
Voelt als: 3.8°
1013.9 hPa 39.1 mm 5.0°
8
87%
23:00
Voelt als: 2.6°
1012.4 hPa 39.1 mm 4.7°
8
79%
 05:56     21:03    Daglengte: 15:07 Donderdag 16 Apr
02:00
Voelt als: 1.5°
1010.8 hPa 39.1 mm 4.3°
9
70%
05:00
Voelt als: 1.7°
1010.8 hPa 39.1 mm 3.6°
7
77%
08:00
Voelt als: 2.2°
1010.7 hPa 39.1 mm 3.0°
5
84%
11:00
Voelt als: 3.1°
1010.2 hPa   3.4°
5
82%
14:00
Voelt als: 4.0°
1009.6 hPa 78.2 mm 3.8°
6
79%
20:00
Voelt als: 1.4°
1009.0 hPa 78.2 mm 3.6°
8
57%
 05:53     21:05    Daglengte: 15:12 Vrijdag 17 Apr
02:00
Voelt als: 2.8°
1015.4 hPa 79.8 mm 2.7°
3
65%
08:00
Voelt als: 3.0°
1018.8 hPa 83.6 mm 2.0°
2
66%
14:00
Voelt als: 4.5°
1020.1 hPa 84.6 mm 0.8°
4
72%
20:00
Voelt als: 5.1°
1022.4 hPa 84.6 mm 2.0°
3
77%
 05:50     21:08    Daglengte: 15:18 Zaterdag 18 Apr
02:00
Voelt als: 2.6°
1023.4 hPa 84.6 mm 2.2°
3
80%
08:00
Voelt als: 2.1°
1023.0 hPa 84.6 mm 2.0°
4
82%
14:00
10°
Voelt als: 7.1°
1022.1 hPa 84.6 mm 3.3°
5
67%
20:00
Voelt als: 6.5°
1022.3 hPa 84.6 mm 4.3°
4
86%
 05:46     21:11    Daglengte: 15:25 Zondag 19 Apr
02:00
Voelt als: 5.6°
1029.0 hPa 84.6 mm 2.6°
1
1%
08:00
Voelt als: 3.4°
1014.7 hPa 0.3 mm 1.2°
4
43%
14:00
Voelt als: 7.2°
1014.6 hPa 0.9 mm 1.2°
4
48%
20:00
Voelt als: 6.2°
1015.7 hPa 1.0 mm 2.3°
4
48%
 05:43     21:14    Daglengte: 15:31 Maandag 20 Apr
02:00
Voelt als: 3.8°
1016.5 hPa 1.0 mm 2.7°
3
52%
08:00
Voelt als: 4.3°
1015.9 hPa 0.6 mm 1.8°
2
54%
14:00
10°
Voelt als: 8.5°
1014.6 hPa 0.8 mm 1.2°
2
49%
20:00
Voelt als: 8.3°
1013.1 hPa 0.8 mm 2.2°
1
52%
 05:40     21:17    Daglengte: 15:37 Dinsdag 21 Apr
02:00
Voelt als: 4.7°
1011.3 hPa 0.7 mm 2.8°
2
58%
08:00
Voelt als: 3.9°
1009.2 hPa 0.8 mm 2.3°
3
57%
14:00
Voelt als: 6.9°
1009.2 hPa 1.5 mm 1.9°
4
58%
20:00
Voelt als: 5.6°
1009.4 hPa 1.3 mm 2.2°
4
61%
 05:36     21:20    Daglengte: 15:44 Woensdag 22 Apr
02:00
Voelt als: 2.8°
1010.3 hPa 0.8 mm 2.1°
4
56%
08:00
Voelt als: 3.3°
1010.6 hPa 1.1 mm 1.9°
3
64%
14:00
Voelt als: 6.4°
1012.5 hPa 1.6 mm 1.8°
3
59%
20:00
Voelt als: 4.8°
1013.7 hPa 1.4 mm 1.5°
3
61%
 05:33     21:23    Daglengte: 15:50 Donderdag 23 Apr
02:00
Voelt als: 2.6°
1015.0 hPa 0.7 mm 0.7°
2
51%
08:00
Voelt als: 2.4°
1015.3 hPa 0.6 mm 0.4°
3
50%
14:00
Voelt als: 5.3°
1015.9 hPa 0.6 mm 0.7°
4
49%
20:00
Voelt als: 5.2°
1017.0 hPa 0.9 mm 1.6°
2
58%
 05:30     21:26    Daglengte: 15:56 Vrijdag 24 Apr
02:00
Voelt als: 3.6°
1017.8 hPa 0.6 mm 1.4°
2
47%
08:00
Voelt als: 5.0°
1017.3 hPa 0.4 mm 0.9°
1
43%
  CAPE Lifted Index Hail Supercell Tornado SRH 3km CL BTM PRES CL TOP PRES Swiss DWD icon SMHI TS
 06:20     20:42    Daglengte: 14:22 Vandaag
14:00 207 J/kg 8.2 K 0 % 0 % 0 % 0 m²/s² 0 0 9.61 80
15:00 205 J/kg 7.8 K 0 % 0 % 0 % 0 m²/s² 0 0 8.97 80
16:00 157 J/kg 7.4 K 0 % 0 % 0 % 0 m²/s² 0 0 8.33 80
17:00 135 J/kg 8.5 K 0 % 0 % 0 % 0 m²/s² 0 0 9.76 80
18:00 129 J/kg 9.0 K 0 % 0 % 0 % 0 m²/s² 0 0 10.8 80
19:00 136 J/kg 9.4 K 0 % 0 % 0 % 0 m²/s² 0 0 11.38 80
20:00 63 J/kg 11.0 K 0 % 0 % 0 % 0 m²/s² 0 0 12.74 80
21:00 65 J/kg 11.0 K 0 % 0 % 0 % 0 m²/s² 0 0 12.74 85
22:00 55 J/kg 11.9 K 0 % 0 % 0 % 0 m²/s² 0 0 14 85
23:00 58 J/kg 12.0 K 0 % 0 % 0 % 0 m²/s² 0 0 14.19 85
 06:17     20:45    Daglengte: 14:28 Morgen
00:00 50 J/kg 12.5 K 0 % 0 % 0 % 0 m²/s² 0 0 14.81 85
01:00 32 J/kg 12.1 K 0 % 0 % 0 % 0 m²/s² 0 0 14.62 85
02:00 66 J/kg 11.6 K 0 % 0 % 0 % 0 m²/s² 0 0 14.33 85
03:00 27 J/kg 11.9 K 0 % 0 % 0 % 0 m²/s² 0 0 14.54 85
04:00 14 J/kg 11.5 K 0 % 0 % 0 % 0 m²/s² 0 0 13.78 85
05:00 30 J/kg 11.1 K 0 % 0 % 0 % 0 m²/s² 0 0 13.2 85
06:00 59 J/kg 10.9 K 0 % 0 % 0 % 0 m²/s² 0 0 12.88 85
07:00 58 J/kg 10.7 K 0 % 0 % 0 % 0 m²/s² 0 0 12.02 85
08:00 58 J/kg 10.6 K 0 % 0 % 0 % 0 m²/s² 0 0 11.38 85
09:00 30 J/kg 10.6 K 0 % 0 % 0 % 0 m²/s² 0 0 11.41 61
10:00 46 J/kg 10.0 K 0 % 0 % 0 % 0 m²/s² 0 0 10.78 61
11:00 33 J/kg 9.8 K 0 % 0 % 0 % 0 m²/s² 0 0 10.64 61
12:00 30 J/kg 9.4 K 0 % 0 % 0 % 0 m²/s² 0 0 10.3 61
13:00 23 J/kg 9.4 K 0 % 0 % 0 % 0 m²/s² 0 0 10.42 61
14:00 24 J/kg 9.1 K 0 % 0 % 0 % 0 m²/s² 0 0 10.21 61
15:00 25 J/kg 8.7 K 0 % 0 % 0 % 0 m²/s² 0 0 9.69 61
16:00 25 J/kg 8.9 K 0 % 0 % 0 % 0 m²/s² 0 0 10.13 61
17:00 18 J/kg 9.3 K 0 % 0 % 0 % 0 m²/s² 0 0 10.47 61
18:00 11 J/kg 9.3 K 0 % 0 % 0 % 0 m²/s² 0 0 11.1 61
19:00 9 J/kg 9.0 K 0 % 0 % 0 % 0 m²/s² 0 0 11.58 61
20:00 4 J/kg 9.7 K 0 % 0 % 0 % 0 m²/s² 0 0 12.52 61
21:00 2 J/kg 9.9 K 0 % 0 % 0 % 0 m²/s² 0 0 13.86 61
22:00 2 J/kg 10.2 K 0 % 0 % 0 % 0 m²/s² 0 0 14.49 61
23:00 2 J/kg 10.6 K 0 % 0 % 0 % 0 m²/s² 0 0 15.28 61
 06:13     20:48    Daglengte: 14:35 Zaterdag 11 Apr
00:00 1 J/kg 10.8 K 0 % 0 % 0 % 0 m²/s² 0 0 17.7 61
01:00 0 J/kg 11.0 K 0 % 0 % 0 % 0 m²/s² 0 0 19.88 61
02:00 0 J/kg 11.3 K 0 % 0 % 0 % 0 m²/s² 0 0 21.14 61
03:00 0 J/kg 11.9 K 0 % 0 % 0 % 0 m²/s² 0 0 21.74 61
04:00 0 J/kg 12.2 K 0 % 0 % 0 % 0 m²/s² 0 0 22.55 61
05:00 0 J/kg 12.5 K 0 % 0 % 0 % 0 m²/s² 0 0 23.45 61
06:00 0 J/kg 12.9 K 0 % 0 % 0 % 0 m²/s² 0 0 23.31 61
07:00 0 J/kg 13.2 K 0 % 0 % 0 % 0 m²/s² 0 0 23.1 3
08:00 0 J/kg 13.6 K 0 % 0 % 0 % 0 m²/s² 0 0 22.6 3
09:00 0 J/kg 13.8 K 0 % 0 % 0 % 0 m²/s² 0 0 21.12 3
10:00 0 J/kg 13.9 K 0 % 0 % 0 % 0 m²/s² 0 0 20.11 3
11:00 0 J/kg 13.6 K 0 % 0 % 0 % 0 m²/s² 0 0 18.58 3
12:00 0 J/kg 12.2 K 0 % 0 % 0 % 0 m²/s² 0 0 14.96 3
13:00 0 J/kg 10.3 K 0 % 0 % 0 % 0 m²/s² 0 0 11.17 3
14:00 0 J/kg 9.3 K 0 % 0 % 0 % 0 m²/s² 0 0 9.69 3
15:00 0 J/kg 8.5 K 0 % 0 % 0 % 0 m²/s² 0 0 8.86 3
16:00 0 J/kg 8.1 K 0 % 0 % 0 % 0 m²/s² 0 0 8.46 3
17:00 0 J/kg 7.6 K 0 % 0 % 0 % 0 m²/s² 0 0 8.05 3
18:00 0 J/kg 6.7 K 0 % 0 % 0 % 0 m²/s² 0 0 7.06 3
19:00 0 J/kg 5.7 K 0 % 0 % 0 % 0 m²/s² 0 0 5.97 3
20:00 0 J/kg 4.9 K 0 % 0 % 0 % 0 m²/s² 0 0 5.23 61
21:00 0 J/kg 4.5 K 0 % 0 % 0 % 0 m²/s² 0 0 4.86 61
22:00 0 J/kg 4.0 K 0 % 0 % 0 % 0 m²/s² 0 0 4.27 61
23:00 0 J/kg 3.3 K 0 % 0 % 0 % 0 m²/s² 0 0 3.54 61
 06:10     20:51    Daglengte: 14:41 Zondag 12 Apr
00:00 0 J/kg 2.4 K 0 % 0 % 0 % 0 m²/s² 0 0 2.64 61
01:00 0 J/kg 2.4 K 0 % 0 % 0 % 0 m²/s² 0 0 2.64 61
02:00 0 J/kg 2.3 K 0 % 0 % 0 % 0 m²/s² 0 0 2.57 61
03:00 1 J/kg 4.1 K 0 % 0 % 0 % 0 m²/s² 0 0 4.67 61
04:00 5 J/kg 7.1 K 0 % 0 % 0 % 0 m²/s² 0 0 14.06 61
05:00 1 J/kg 7.6 K 0 % 0 % 0 % 0 m²/s² 0 0 15.34 61
06:00 1 J/kg 8.3 K 0 % 0 % 0 % 0 m²/s² 0 0 11.45 61
07:00 2 J/kg 8.1 K 0 % 0 % 0 % 0 m²/s² 0 0 9.66 61
08:00 4 J/kg 8.2 K 0 % 0 % 0 % 0 m²/s² 0 0 10.03 61
09:00 5 J/kg 8.3 K 0 % 0 % 0 % 0 m²/s² 0 0 8.75 61
10:00 9 J/kg 9.2 K 0 % 0 % 0 % 0 m²/s² 0 0 9.65 61
11:00 15 J/kg 10.2 K 0 % 0 % 0 % 0 m²/s² 0 0 10.65 61
12:00 19 J/kg 11.0 K 0 % 0 % 0 % 0 m²/s² 0 0 11.42 3
13:00 12 J/kg 12.0 K 0 % 0 % 0 % 0 m²/s² 0 0 12.6 85
Temp Baro Wind Neerslag
  EWN Forecast EWN WRFDA DWD ICON FMI HIRLAM MET Norway GFS
 06:20     20:42    Daglengte: 14:22 Vandaag
14:00 4.8° 1021.6 hPa 10.5 m/s 0.0 mm 5.0° 1019.7 hPa 9.6 m/s 2.6 mm 4.5° 1021.9 hPa 11.1 m/s -0.4 mm 5.1° 1021.8 hPa 9.0 m/s 0.0 mm 4.7° 1021.4 hPa 11.2 m/s 3.4° 1021.8 hPa 11.4 m/s
17:00 5.0° 1023.0 hPa 10.3 m/s 3.7 mm 4.9° 1020.8 hPa 9.1 m/s 13.6 mm 4.1° 1023.7 hPa 10.5 m/s 2.0 mm 5.0° 1023.0 hPa 8.1 m/s 0.0 mm 5.1° 1023.0 hPa 11.5 m/s 4.2° 1023.2 hPa 10.4 m/s
20:00 4.2° 1024.0 hPa 9.1 m/s 1.4 mm 3.5° 1022.0 hPa 8.5 m/s 17.5 mm 3.8° 1024.3 hPa 8.3 m/s 1.7 mm 4.1° 1023.7 hPa 8.7 m/s 0.0 mm 4.3° 1024.1 hPa 10.1 m/s 4.1° 1024.7 hPa 9.4 m/s
23:00 3.5° 1025.3 hPa 8.6 m/s 0.0 mm 3.3° 1022.9 hPa 7.8 m/s 24.9 mm 3.5° 1026.1 hPa 7.3 m/s 1.4 mm 3.6° 1025.4 hPa 8.8 m/s 0.0 mm 3.3° 1025.3 hPa 8.8 m/s 3.6° 1025.4 hPa 9.5 m/s
 06:17     20:45    Daglengte: 14:28 Morgen
02:00 3.1° 1025.8 hPa 7.7 m/s 0.0 mm 2.9° 1023.4 hPa 6.7 m/s 26.9 mm 3.1° 1026.4 hPa 6.9 m/s 0.9 mm 3.2° 1025.3 hPa 7.1 m/s 0.0 mm 2.8° 1026.1 hPa 8.1 m/s 3.2° 1026.3 hPa 8.3 m/s
05:00 2.6° 1025.6 hPa 6.4 m/s 5.5 mm 1.9° 1024.1 hPa 6.0 m/s 34.2 mm 2.6° 1025.8 hPa 6.8 m/s 1.3 mm 2.9° 1025.5 hPa 5.7 m/s 0.0 mm 2.4° 1026.0 hPa 6.1 m/s 2.8° 1026.8 hPa 7.2 m/s
08:00 2.6° 1025.3 hPa 5.8 m/s 6.0 mm 2.8° 1023.6 hPa 6.2 m/s 41.0 mm 2.6° 1025.4 hPa 6.6 m/s 1.3 mm 3.0° 1024.8 hPa 5.2 m/s 0.0 mm 2.5° 1026.0 hPa 4.4 m/s 2.1° 1026.6 hPa 5.7 m/s
11:00 3.3° 1025.2 hPa 6.7 m/s 9.5 mm 3.4° 1023.7 hPa 6.2 m/s 42.6 mm 3.1° 1024.9 hPa 8.1 m/s 1.5 mm 3.7° 1024.4 hPa 6.6 m/s 0.0 mm 3.4° 1025.9 hPa 6.2 m/s 2.3° 1026.7 hPa 5.9 m/s
14:00 3.6° 1024.8 hPa 6.3 m/s 11.1 mm 3.5° 1023.7 hPa 3.5 m/s 50.6 mm 4.5° 1023.7 hPa 8.9 m/s 1.5 mm 2.8° 1023.8 hPa 3.9 m/s 0.0 mm 3.8° 1026.0 hPa 7.9 m/s 2.5° 1026.8 hPa 5.2 m/s
17:00 3.1° 1024.1 hPa 4.9 m/s 11.5 mm 4.8° 1021.9 hPa 5.0 m/s 56.5 mm 5.3° 1022.7 hPa 11.3 m/s 1.8 mm 3.2° 1022.8 hPa 3.5 m/s 0.0 mm 2.4° 1025.6 hPa 4.5 m/s 2.9° 1025.9 hPa 3.4 m/s
20:00 3.3° 1024.2 hPa 5.4 m/s 11.2 mm 3.7° 1021.5 hPa 2.7 m/s 62.7 mm 4.5° 1023.3 hPa 9.6 m/s 3.9 mm 4.4° 1024.5 hPa 4.1 m/s 0.0 mm 3.1° 1024.4 hPa 6.9 m/s 3.2° 1025.1 hPa 2.5 m/s
23:00 3.2° 1024.1 hPa 4.2 m/s 8.8 mm 2.1° 1021.3 hPa 0.9 m/s 84.2 mm 4.0° 1023.6 hPa 5.1 m/s 3.6 mm 4.0° 1025.4 hPa 3.2 m/s 0.0 mm 3.3° 1024.0 hPa 6.2 m/s 3.2° 1025.2 hPa 3.1 m/s
 06:13     20:48    Daglengte: 14:35 Zaterdag 11 Apr
02:00 3.3° 1024.4 hPa 2.3 m/s 0.0 mm 2.0° 1021.8 hPa 1.1 m/s 113.3 mm 4.2° 1024.0 hPa 3.0 m/s 2.0 mm 3.9° 1026.1 hPa 2.6 m/s 0.0 mm 3.3° 1024.2 hPa 0.6 m/s 3.3° 1025.0 hPa 4.0 m/s
05:00 2.4° 1023.8 hPa 2.1 m/s 0.0 mm 1.1° 1020.3 hPa 3.1 m/s 121.3 mm 3.6° 1023.8 hPa 1.5 m/s 2.1 mm 3.7° 1026.1 hPa 1.6 m/s 0.0 mm 1.7° 1023.4 hPa 2.1 m/s 3.1° 1023.7 hPa 3.6 m/s
08:00 2.9° 1022.6 hPa 3.0 m/s 0.0 mm 2.1° 1018.2 hPa 3.4 m/s 121.3 mm 3.6° 1022.9 hPa 2.4 m/s 0.1 mm 3.9° 1024.9 hPa 3.7 m/s 0.0 mm 2.1° 1021.6 hPa 3.0 m/s 3.3° 1022.2 hPa 4.2 m/s
11:00 4.8° 1019.5 hPa 3.4 m/s 0.0 mm 5.0° 1014.9 hPa 3.7 m/s 121.3 mm 5.2° 1021.6 hPa 2.8 m/s 0.0 mm 4.9° 1019.4 hPa 3.6 m/s 4.3° 1019.7 hPa 4.0 m/s
14:00 6.0° 1017.0 hPa 1.5 m/s 0.0 mm 7.9° 1012.3 hPa 1.1 m/s 121.3 mm 7.5° 1018.8 hPa 2.7 m/s 0.0 mm 5.6° 1017.0 hPa 1.2 m/s 5.6° 1017.6 hPa 3.6 m/s
17:00 5.5° 1014.0 hPa 1.9 m/s 0.0 mm 7.4° 1009.1 hPa 1.5 m/s 121.4 mm 8.2° 1016.0 hPa 1.9 m/s 0.0 mm 4.0° 1014.0 hPa 2.4 m/s 5.8° 1014.4 hPa 2.6 m/s
20:00 4.6° 1010.2 hPa 2.5 m/s 23.4 mm 6.1° 1005.9 hPa 2.4 m/s 121.6 mm 7.4° 1013.7 hPa 1.3 m/s 0.2 mm 3.5° 1009.9 hPa 3.5 m/s 5.1° 1011.0 hPa 6.3 m/s
23:00 4.6° 1007.3 hPa 2.9 m/s 25.5 mm 6.0° 1003.6 hPa 3.3 m/s 122.4 mm 6.0° 1010.6 hPa 1.5 m/s 1.3 mm 4.3° 1007.1 hPa 3.1 m/s 5.2° 1008.3 hPa 5.6 m/s
 06:10     20:51    Daglengte: 14:41 Zondag 12 Apr
02:00 5.2° 1004.6 hPa 2.9 m/s 29.2 mm 6.8° 1001.9 hPa 7.2 m/s 133.6 mm 5.0° 1008.3 hPa 3.1 m/s 3.8 mm 5.2° 1004.4 hPa 2.7 m/s 5.8° 1005.9 hPa 6.1 m/s
05:00 5.8° 1002.6 hPa 5.9 m/s 32.1 mm 5.9° 1002.0 hPa 8.1 m/s 144.8 mm 3.3° 1006.7 hPa 3.9 m/s 5.8 mm 6.0° 1002.0 hPa 4.3 m/s 6.6° 1004.1 hPa 9.6 m/s
08:00 5.9° 1002.7 hPa 7.2 m/s 38.6 mm 5.7° 1003.0 hPa 5.9 m/s 146.9 mm 2.0° 1007.7 hPa 8.0 m/s 4.9 mm 6.8° 999.6 hPa 5.9 m/s 6.3° 1004.9 hPa 12.4 m/s
11:00 4.9° 1003.7 hPa 6.6 m/s 53.0 mm 3.9° 1006.2 hPa 4.7 m/s 156.4 mm 3.0° 1010.0 hPa 6.7 m/s 1.3 mm 6.2° 1000.2 hPa 6.8 m/s 5.4° 1007.0 hPa 4.0 m/s
14:00 5.2° 1005.6 hPa 7.6 m/s 54.3 mm 4.6° 1009.5 hPa 8.0 m/s 162.5 mm 4.8° 1012.5 hPa 6.6 m/s 0.1 mm 5.7° 1000.7 hPa 7.8 m/s 3.3° 1010.7 hPa 7.4 m/s
17:00 4.5° 1005.7 hPa 8.6 m/s 34.8 mm 4.6° 1004.9 hPa 8.9 m/s 4.0° 1013.9 hPa 5.9 m/s 34.8 mm
20:00 3.9° 1007.8 hPa 9.3 m/s 35.3 mm 4.0° 1007.0 hPa 9.4 m/s 3.1° 1016.9 hPa 8.2 m/s 35.3 mm
23:00 3.7° 1011.2 hPa 11.0 m/s 35.8 mm 3.8° 1010.4 hPa 11.2 m/s 2.8° 1020.2 hPa 8.7 m/s 35.8 mm
 06:06     20:54    Daglengte: 14:48 Maandag 13 Apr
02:00 3.5° 1014.6 hPa 12.4 m/s 36.0 mm 3.6° 1013.8 hPa 13.1 m/s 2.6° 1022.8 hPa 5.2 m/s 36.0 mm
05:00 3.2° 1017.7 hPa 10.7 m/s 36.6 mm 3.3° 1017.0 hPa 11.2 m/s 1.9° 1024.5 hPa 4.9 m/s 36.6 mm
08:00 2.9° 1020.8 hPa 9.1 m/s 37.3 mm 3.0° 1020.3 hPa 9.4 m/s 1.6° 1026.0 hPa 6.0 m/s 37.3 mm
11:00 3.4° 1022.6 hPa 7.8 m/s 37.5 mm 3.5° 1022.2 hPa 8.2 m/s 1.9° 1026.9 hPa 3.9 m/s 37.5 mm
14:00 3.9° 1024.5 hPa 6.6 m/s 37.5 mm 4.0° 1024.2 hPa 6.9 m/s 2.3° 1027.3 hPa 3.2 m/s 37.5 mm
17:00 3.7° 1023.9 hPa 6.0 m/s 37.5 mm 3.8° 1023.6 hPa 6.2 m/s 2.3° 1027.0 hPa 3.3 m/s 37.5 mm
20:00 3.5° 1023.2 hPa 5.5 m/s 37.5 mm 3.6° 1023.0 hPa 5.6 m/s 2.4° 1025.9 hPa 4.9 m/s 37.5 mm
23:00 3.6° 1022.0 hPa 8.2 m/s 37.5 mm 3.7° 1021.7 hPa 8.3 m/s 2.3° 1025.2 hPa 6.7 m/s 37.5 mm
 06:03     20:57    Daglengte: 14:54 Dinsdag 14 Apr
02:00 3.7° 1020.7 hPa 10.8 m/s 37.5 mm 3.8° 1020.4 hPa 11.0 m/s 2.9° 1024.1 hPa 8.6 m/s 37.5 mm
05:00 3.9° 1017.9 hPa 11.1 m/s 37.6 mm 4.0° 1017.5 hPa 11.1 m/s 2.7° 1021.6 hPa 10.6 m/s 37.6 mm
08:00 4.2° 1015.1 hPa 11.2 m/s 37.8 mm 4.3° 1014.7 hPa 11.2 m/s 3.1° 1019.9 hPa 10.7 m/s 37.8 mm
11:00 5.4° 1014.3 hPa 11.8 m/s 38.1 mm 5.5° 1013.9 hPa 11.8 m/s 4.3° 1018.4 hPa 12.2 m/s 38.1 mm
14:00 6.6° 1013.4 hPa 12.4 m/s 38.4 mm 6.7° 1013.1 hPa 12.3 m/s 5.7° 1017.1 hPa 13.8 m/s 38.4 mm
17:00 7.0° 1012.6 hPa 12.5 m/s 38.9 mm 7.1° 1012.3 hPa 12.4 m/s 5.7° 1016.4 hPa 13.3 m/s 38.9 mm
20:00 7.4° 1011.9 hPa 12.6 m/s 39.0 mm 7.5° 1011.5 hPa 12.6 m/s 5.8° 1016.1 hPa 12.7 m/s 39.0 mm
23:00 7.5° 1011.8 hPa 13.6 m/s 39.0 mm 7.6° 1011.4 hPa 13.6 m/s 6.0° 1016.9 hPa 13.1 m/s 39.0 mm
 06:00     21:00    Daglengte: 15:00 Woensdag 15 Apr
02:00 7.6° 1011.7 hPa 14.4 m/s 39.0 mm 7.7° 1011.2 hPa 14.7 m/s 6.0° 1016.8 hPa 11.5 m/s 39.0 mm
05:00 7.0° 1013.3 hPa 11.5 m/s 39.0 mm 7.1° 1013.0 hPa 11.6 m/s 5.8° 1016.5 hPa 11.5 m/s 39.0 mm
08:00 6.4° 1014.9 hPa 8.6 m/s 39.0 mm 6.5° 1014.8 hPa 8.4 m/s 5.4° 1016.1 hPa 10.9 m/s 39.0 mm
11:00 7.4° 1015.2 hPa 8.8 m/s 39.1 mm 7.5° 1015.1 hPa 8.6 m/s 6.3° 1016.0 hPa 11.5 m/s 39.1 mm
14:00 8.5° 1015.5 hPa 8.9 m/s 39.1 mm 8.6° 1015.5 hPa 8.7 m/s 7.0° 1015.6 hPa 10.6 m/s 39.1 mm
17:00 8.1° 1014.7 hPa 8.4 m/s 39.1 mm 8.2° 1014.6 hPa 8.2 m/s 7.6° 1015.3 hPa 9.8 m/s 39.1 mm
20:00 7.7° 1013.9 hPa 7.8 m/s 39.1 mm 7.8° 1013.8 hPa 7.8 m/s 6.9° 1015.1 hPa 7.8 m/s 39.1 mm
23:00 6.9° 1012.4 hPa 8.2 m/s 39.1 mm 7.0° 1012.2 hPa 8.4 m/s 5.9° 1014.8 hPa 6.6 m/s 39.1 mm
 05:56     21:03    Daglengte: 15:07 Donderdag 16 Apr
02:00 6.1° 1010.8 hPa 8.7 m/s 39.1 mm 6.2° 1010.6 hPa 9.0 m/s 5.6° 1013.3 hPa 5.6 m/s 39.1 mm
05:00 5.8° 1010.8 hPa 6.6 m/s 39.1 mm 5.8° 1010.8 hPa 6.8 m/s 5.3° 1011.3 hPa 4.6 m/s 39.1 mm
08:00 5.5° 1010.7 hPa 4.5 m/s 39.1 mm 5.5° 1010.9 hPa 4.6 m/s 5.5° 1008.8 hPa 3.9 m/s 39.1 mm
11:00 6.5° 1010.2 hPa 5.2 m/s 39.1 mm 6.5° 1010.5 hPa 5.4 m/s 6.1° 1006.5 hPa 2.5 m/s 39.1 mm
14:00 7.4° 1009.6 hPa 5.9 m/s 39.1 mm 7.5° 1010.1 hPa 6.3 m/s 6.8° 1004.2 hPa 2.0 m/s 39.1 mm
20:00 5.9° 1009.0 hPa 8.0 m/s 39.1 mm 5.9° 1009.7 hPa 7.5 m/s 6.4° 1001.6 hPa 14.0 m/s 39.1 mm
 05:53     21:05    Daglengte: 15:12 Vrijdag 17 Apr
02:00 5.4° 1015.4 hPa 3.2 m/s 40.3 mm 5.5° 1016.1 hPa 2.6 m/s 3.9° 1008.3 hPa 9.2 m/s 40.3 mm
08:00 4.8° 1018.8 hPa 2.0 m/s 42.1 mm 4.8° 1019.0 hPa 1.6 m/s 4.2° 1016.8 hPa 6.8 m/s 42.1 mm
14:00 7.0° 1020.1 hPa 3.7 m/s 42.3 mm 7.2° 1019.9 hPa 3.8 m/s 4.6° 1022.4 hPa 2.5 m/s 42.3 mm
20:00 7.0° 1022.4 hPa 2.7 m/s 42.3 mm 7.2° 1022.2 hPa 2.8 m/s 4.4° 1024.8 hPa 1.2 m/s 42.3 mm
 05:50     21:08    Daglengte: 15:18 Zaterdag 18 Apr
02:00 5.0° 1023.4 hPa 3.0 m/s 42.3 mm 5.1° 1023.1 hPa 3.0 m/s 4.4° 1026.3 hPa 2.7 m/s 42.3 mm
08:00 5.0° 1023.0 hPa 3.6 m/s 42.3 mm 5.0° 1022.6 hPa 3.5 m/s 4.8° 1027.3 hPa 4.2 m/s 42.3 mm
14:00 9.5° 1022.1 hPa 4.8 m/s 42.3 mm 9.8° 1021.5 hPa 5.0 m/s 6.7° 1028.8 hPa 2.7 m/s 42.3 mm
20:00 8.7° 1022.3 hPa 3.8 m/s 42.3 mm 8.9° 1021.7 hPa 4.0 m/s 6.3° 1028.7 hPa 1.9 m/s 42.3 mm
 05:46     21:11    Daglengte: 15:25 Zondag 19 Apr
02:00 6.0° 1029.0 hPa 1.1 m/s 42.3 mm 6.0° 1029.0 hPa 1.1 m/s 42.3 mm
08:00 6.2° 1014.7 hPa 3.9 m/s 0.3 mm
14:00 9.5° 1014.6 hPa 4.5 m/s 0.9 mm
20:00 8.4° 1015.7 hPa 3.8 m/s 1.0 mm
 05:43     21:14    Daglengte: 15:31 Maandag 20 Apr
02:00 6.0° 1016.5 hPa 2.9 m/s 1.0 mm
08:00 6.1° 1015.9 hPa 2.3 m/s 0.6 mm
14:00 9.5° 1014.6 hPa 2.2 m/s 0.8 mm
20:00 8.8° 1013.1 hPa 1.5 m/s 0.8 mm
 05:40     21:17    Daglengte: 15:37 Dinsdag 21 Apr
02:00 6.1° 1011.3 hPa 2.0 m/s 0.7 mm
08:00 6.2° 1009.2 hPa 3.0 m/s 0.8 mm
14:00 9.0° 1009.2 hPa 3.8 m/s 1.5 mm
20:00 7.9° 1009.4 hPa 3.7 m/s 1.3 mm
 05:36     21:20    Daglengte: 15:44 Woensdag 22 Apr
02:00 5.6° 1010.3 hPa 3.6 m/s 0.8 mm
08:00 5.7° 1010.6 hPa 3.1 m/s 1.1 mm
14:00 8.3° 1012.5 hPa 3.2 m/s 1.6 mm
20:00 6.7° 1013.7 hPa 2.7 m/s 1.4 mm
 05:33     21:23    Daglengte: 15:50 Donderdag 23 Apr
02:00 4.3° 1015.0 hPa 2.0 m/s 0.7 mm
08:00 4.8° 1015.3 hPa 2.8 m/s 0.6 mm
14:00 7.7° 1015.9 hPa 3.7 m/s 0.6 mm
20:00 6.7° 1017.0 hPa 2.1 m/s 0.9 mm
 05:30     21:26    Daglengte: 15:56 Vrijdag 24 Apr
02:00 4.7° 1017.8 hPa 1.5 m/s 0.6 mm
08:00 5.1° 1017.3 hPa 0.9 m/s 0.4 mm
FMI Hirlam - 7.5 km EWN WRFDA - 12 km DWD ICON - 7 km GFS - 25 km Basiskaart






























































Updatetijd (Europe/Amsterdam) Resolutie Lengte Stap
FMI Hirlam 07:45, 13:45, 19:45, 01:45 7.5 km 49h 1h
EWN WRFDA 09:30, 15:30, 21:30, 03:30 12 km 73h 1h
DWD ICON 11:45, 17:45, 23:45, 05:45 7 km 75h 1h
GFS 08:00, 14:00, 20:00, 02:00 25 km 237h 3h
30+ mm
25-30 mm
20-25 mm
15-20 mm
10-15 mm
6-10 mm
4-6 mm
2-4 mm
1-2 mm
0.5-1 mm
0.2-0.5 mm
0.1-0.2 mm
30+ mm
25-30 mm
20-25 mm
15-20 mm
10-15 mm
6-10 mm
4-6 mm
2-4 mm
1-2 mm
0.5-1 mm
0.2-0.5 mm
0.1-0.2 mm
Sneeuwval
Natte sneeuw
Hagel
Vorst
30+ mm
25-30 mm
20-25 mm
15-20 mm
10-15 mm
6-10 mm
4-6 mm
2-4 mm
1-2 mm
0.5-1 mm
0.2-0.5 mm
0.1-0.2 mm
Sneeuwval
Natte sneeuw
Hagel
Vorst
Onweer
50 mm
40 mm
30 mm
26 mm
22 mm
18 mm
14 mm
10 mm
9 mm
8 mm
7 mm
6 mm
5 mm
4.5 mm
4 mm
3.5 mm
3 mm
2.5 mm
2 mm
1.5 mm
1 mm
0.8 mm
0.6 mm
0.4 mm
0.2 mm
0.05 mm
35°
30°
25°
20°
15°
10°
-5°
-10°
-15°
-20°
-25°
-30°
-35°
120> km/h
105 km/h
90 km/h
75 km/h
60 km/h
50 km/h
40 km/h
30 km/h
20 km/h
10 km/h
0 km/h
2600 J/kg
2400 J/kg
2200 J/kg
2000 J/kg
1800 J/kg
1600 J/kg
1400 J/kg
1200 J/kg
1000 J/kg
800 J/kg
600 J/kg
400 J/kg
200 J/kg
70 dBZ
65 dBZ
60 dBZ
55 dBZ
50 dBZ
45 dBZ
40 dBZ
35 dBZ
30 dBZ
25 dBZ
20 dBZ
15 dBZ
10 dBZ
5 dBZ
-1 K
-2 K
-3 K
-4 K
-5 K
-6 K
-7 K
-8 K
-9 K
950 m²/s²
900 m²/s²
850 m²/s²
800 m²/s²
750 m²/s²
700 m²/s²
650 m²/s²
600 m²/s²
550 m²/s²
500 m²/s²
450 m²/s²
400 m²/s²
350 m²/s²
300 m²/s²
250 m²/s²
200 m²/s²
150 m²/s²
100 m²/s²
46 m/s
44 m/s
42 m/s
40 m/s
38 m/s
36 m/s
34 m/s
32 m/s
30 m/s
28 m/s
26 m/s
24 m/s
22 m/s
20 m/s
16 m/s
12 m/s
8 m/s
4 m/s
30 m/s
28 m/s
26 m/s
24 m/s
22 m/s
20 m/s
18 m/s
16 m/s
14 m/s
12 m/s
10 m/s
8 m/s
6 m/s
4 m/s
2 m/s
3.0
2.8
2.6
2.4
2.2
2.0
1.8
1.6
1.4
1.2
1.0
0.8
0.6
0.4
0.2
15
14
13
12
11
10
9
8
7
6
5
4
3
2